Regional Weather Roundup
Issued by NWS

Home | Current Version | Previous Version | Text Only | Print | Product List | Glossary Off
Versions: 1 2 3 4 5 6 7 8 9 10 11 12 13 14 15 16 17 18 19 20 21 22 23 24 25 26 27 28 29 30 31 32 33 34 35 36 37 38 39 40 41 42 43 44 45 46 47 48 49 50

588
ASUS43 KIND 170309
RWRIN

WEATHER ROUNDUP FOR INDIANA
NATIONAL WEATHER SERVICE INDIANAPOLIS IN
1000 PM EST SAT DEC 16 2017

NOTE: "FAIR" INDICATES FEW OR NO CLOUDS BELOW 12,000 FEET WITH NO
SIGNIFICANT WEATHER AND/OR OBSTRUCTIONS TO VISIBILITY.

* - STATION DOES NOT REPORT WEATHER SUCH AS PRECIPITATION OR FOG.

+ - STATION NOT QUALITY CONTROLLED BY THE NATIONAL WEATHER SERVICE.
    USE DATA WITH CAUTION...ESPECIALLY DEWPOINT AND RELATIVE
    HUMIDITY OBSERVATIONS.

INZ001>003-010>013-019-020-170400-
NORTHWEST INDIANA

CITY           SKY/WX    TMP DP  RH WIND       PRES   REMARKS
GARY /AIRPORT/ CLEAR     30  28  93 CALM      30.05R
KNOX *+        CLOUDY    30  27  86 CALM      30.05R
LA PORTE +     CLOUDY    25  22  87 NE3       30.06R
MICHIGAN CITY+ CLEAR     30  27  86 CALM      30.06R
MONTICELLO +   CLOUDY    35  27  72 S3        30.05S
RENSSELAER +   CLOUDY    34  23  64 SE5       30.05S WCI  30
VALPARAISO     CLEAR     32  26  78 CALM      30.06R

$$

LMZ046-743>745-170400-
SOUTHERN LAKE MICHIGAN

STATION/POSITION TIME  TEMP    WIND        PRES    WAVE
                       AIR SEA DIR/SP/G            HT
                 (UTC) (F)     (DEG/KT/KT) (MB)    (FT)
BURNS HARBOR     0240   38      CALM  /  1 1017.9R
MICHIGAN CITY    0240   37     120/ 10/ 10   N/A

$$

INZ004-005-014>016-021>024-170400-
NORTH CENTRAL INDIANA

CITY           SKY/WX    TMP DP  RH WIND       PRES   REMARKS
GOSHEN         CLOUDY    29  25  85 SE5       30.07R WCI  24
LOGANSPORT +   CLOUDY    32  27  80 SE7       30.08R WCI  26
PERU/GRISSOM   CLOUDY    34  28  77 S7        30.07R WCI  28
ROCHESTER +    CLEAR     34  30  86 S3        30.07R
SOUTH BEND     CLOUDY    32  27  81 E5        30.07R WCI  27
WARSAW +       CLEAR     32  28  86 SE3       30.07R

$$

INZ006>009-017-018-025>027-170400-
NORTHEAST INDIANA

CITY           SKY/WX    TMP DP  RH WIND       PRES   REMARKS
AUBURN +       CLEAR     34  27  75 SE5       30.09S WCI  30
FORT WAYNE     CLEAR     30  26  85 E3        30.10R
HUNTINGTON +   CLEAR     31  26  83 S3        30.09R

$$

INZ028-029-035-036-043>045-051>053-170400-
WEST CENTRAL INDIANA

CITY           SKY/WX    TMP DP  RH WIND       PRES   REMARKS
CRAWFORDSVL +  CLOUDY    37  28  72 S8        30.08R WCI  30
GREENCASTLE +  CLOUDY    43  28  56 SW6       30.10R
LAFAYETTE      CLOUDY    34  28  79 CALM      30.07R
TERRE HAUTE    CLOUDY    43  28  55 S12       30.10R

$$

INZ030>032-037>040-046>048-054>057-064-065-170400-
CENTRAL INDIANA

CITY           SKY/WX    TMP DP  RH WIND       PRES   REMARKS
COLUMBUS       CLEAR     34  23  64 S7        30.13R WCI  28
FRANKFORT +    CLOUDY    37  29  74 SW7       30.08S WCI  31
GREENWOOD *+   CLOUDY    41  30  64 S5        30.11R
INDIANAPOLIS   CLOUDY    39  28  64 SW8       30.10R WCI  33
-EAGLE CREEK   CLOUDY    42  27  55 SW6       30.09R
KOKOMO +       CLOUDY    34  26  72 S7        30.09R WCI  28
MARION +       CLOUDY    29  25  82 S5        30.09S WCI  24
MT COMFORT *+  CLOUDY    36  30  80 S6        30.10S WCI  31
SHELBYVILLE    CLOUDY    38  26  62 S8        30.11R WCI  32
ZIONSVILLE +   CLOUDY    37  27  67 S9        30.08S WCI  31

$$

INZ033-034-041-042-049-050-058-059-170400-
EAST CENTRAL INDIANA

CITY           SKY/WX    TMP DP  RH WIND       PRES   REMARKS
MUNCIE         CLOUDY    39  27  62 S5        30.09R WCI  36
RICHMOND +     CLOUDY    32  27  80 SW5       30.12R WCI  27

$$

INZ060-061-067>069-081>083-085>088-170400-
SOUTHWEST INDIANA

CITY           SKY/WX    TMP DP  RH WIND       PRES   REMARKS
EVANSVILLE     CLOUDY    44  30  57 S9        30.16R
HUNTINGBURG +  CLOUDY    40  29  64 S8        30.16R WCI  34
WASHINGTON +   CLOUDY    42  27  54 S9        30.13R

$$

INZ062-063-066-070>080-084-089>092-170400-
SOUTH CENTRAL AND SOUTHEAST INDIANA

CITY           SKY/WX    TMP DP  RH WIND       PRES   REMARKS
BEDFORD +      CLOUDY    43  27  52 SW8       30.13R
BLOOMINGTON    CLOUDY    45  27  49 SW14      30.11R
MADISON *+     CLOUDY    41  28  60 S7        30.16R
NORTH VERNON + CLOUDY    39  27  60 S8        30.14R WCI  34
SEYMOUR +      PTCLDY    39  27  60 S8        30.14R WCI  34

$$





USA.gov is the U.S. government's official web portal to all federal, state and local government web resources and services.